TimeCDT,TemperatureF,Dew PointF,Humidity,Sea Level PressureIn,VisibilityMPH,Wind Direction,Wind SpeedMPH,Gust SpeedMPH,PrecipitationIn,Events,Conditions,WindDirDegrees,DateUTC
12:15 AM,33.8,32.0,93,30.07,10.0,NNE,13.8,-,N/A,Rain,Light Rain,20,2012-10-11 05:15:00
12:35 AM,32.0,32.0,100,30.08,10.0,NNE,9.2,-,N/A,,Overcast,20,2012-10-11 05:35:00
12:55 AM,32.0,32.0,100,30.09,10.0,North,11.5,-,N/A,Snow,Light Snow,10,2012-10-11 05:55:00
1:15 AM,32.0,32.0,100,30.10,10.0,North,11.5,-,N/A,Snow,Light Snow,10,2012-10-11 06:15:00
1:35 AM,32.0,32.0,100,30.11,10.0,North,11.5,-,0.01,Snow,Light Snow,10,2012-10-11 06:35:00
1:55 AM,32.0,32.0,100,30.11,10.0,North,9.2,-,0.01,,Overcast,360,2012-10-11 06:55:00
2:15 AM,32.0,32.0,100,30.12,10.0,North,8.1,-,N/A,,Overcast,350,2012-10-11 07:15:00
2:35 AM,32.0,32.0,100,30.13,10.0,North,9.2,-,N/A,,Overcast,350,2012-10-11 07:35:00
2:55 AM,32.0,32.0,100,30.14,10.0,North,10.4,-,N/A,,Overcast,350,2012-10-11 07:55:00
3:15 AM,32.0,30.2,93,30.15,10.0,NNW,10.4,-,N/A,,Overcast,340,2012-10-11 08:15:00
3:35 AM,32.0,30.2,93,30.16,10.0,NNW,10.4,-,N/A,,Overcast,340,2012-10-11 08:35:00
3:55 AM,32.0,30.2,93,30.16,10.0,NNW,8.1,-,N/A,,Overcast,340,2012-10-11 08:55:00
4:15 AM,32.0,30.2,93,30.17,10.0,NNW,8.1,-,N/A,,Overcast,340,2012-10-11 09:15:00
4:35 AM,32.0,28.4,87,30.18,10.0,NW,6.9,-,N/A,,Overcast,320,2012-10-11 09:35:00
4:55 AM,30.2,28.4,93,30.18,10.0,NW,5.8,-,N/A,,Mostly Cloudy,310,2012-10-11 09:55:00
5:35 AM,32.0,28.4,87,30.20,10.0,NW,6.9,-,N/A,,Overcast,320,2012-10-11 10:35:00
5:55 AM,32.0,30.2,93,30.21,10.0,NW,8.1,-,N/A,,Overcast,320,2012-10-11 10:55:00
6:15 AM,32.0,30.2,93,30.21,10.0,NNW,6.9,-,N/A,,Overcast,330,2012-10-11 11:15:00
6:35 AM,32.0,30.2,93,30.22,10.0,NW,9.2,-,N/A,,Overcast,320,2012-10-11 11:35:00
6:55 AM,32.0,30.2,93,30.22,10.0,NW,5.8,-,N/A,,Overcast,320,2012-10-11 11:55:00
7:35 AM,32.0,30.2,93,30.24,10.0,NNW,6.9,-,N/A,,Overcast,340,2012-10-11 12:35:00
7:55 AM,32.0,28.4,87,30.24,10.0,NNW,5.8,-,N/A,,Mostly Cloudy,330,2012-10-11 12:55:00
8:15 AM,30.2,28.4,93,30.25,10.0,NNW,6.9,-,N/A,,Scattered Clouds,330,2012-10-11 13:15:00
8:35 AM,30.2,28.4,93,30.26,10.0,NNW,9.2,-,N/A,,Clear,340,2012-10-11 13:35:00
8:55 AM,30.2,28.4,93,30.28,10.0,NNW,8.1,-,N/A,,Clear,330,2012-10-11 13:55:00
9:35 AM,32.0,28.4,87,30.29,10.0,NNW,9.2,-,N/A,,Mostly Cloudy,340,2012-10-11 14:35:00
9:55 AM,32.0,28.4,87,30.30,10.0,NNW,10.4,-,N/A,,Overcast,340,2012-10-11 14:55:00
10:15 AM,32.0,28.4,87,30.30,10.0,North,12.7,-,N/A,,Overcast,350,2012-10-11 15:15:00
10:35 AM,32.0,28.4,87,30.31,10.0,North,11.5,-,N/A,,Mostly Cloudy,350,2012-10-11 15:35:00
10:55 AM,32.0,28.4,87,30.31,10.0,NNW,10.4,-,N/A,,Mostly Cloudy,340,2012-10-11 15:55:00
11:15 AM,32.0,28.4,87,30.32,10.0,NNW,6.9,-,N/A,,Mostly Cloudy,340,2012-10-11 16:15:00
11:35 AM,32.0,28.4,87,30.33,10.0,NNW,6.9,-,N/A,,Overcast,330,2012-10-11 16:35:00
11:55 AM,32.0,28.4,87,30.33,10.0,North,9.2,-,N/A,,Overcast,350,2012-10-11 16:55:00
12:15 PM,33.8,26.6,75,30.33,10.0,North,8.1,-,N/A,,Overcast,350,2012-10-11 17:15:00
12:35 PM,33.8,26.6,75,30.33,10.0,NNW,10.4,-,N/A,,Overcast,330,2012-10-11 17:35:00
12:55 PM,33.8,26.6,75,30.33,10.0,WNW,5.8,-,N/A,,Scattered Clouds,290,2012-10-11 17:55:00
1:15 PM,35.6,24.8,65,30.33,10.0,NW,8.1,-,N/A,,Scattered Clouds,320,2012-10-11 18:15:00
1:35 PM,35.6,23.0,60,30.33,10.0,NW,6.9,-,N/A,,Scattered Clouds,310,2012-10-11 18:35:00
1:55 PM,35.6,23.0,60,30.32,10.0,NW,5.8,-,N/A,,Scattered Clouds,320,2012-10-11 18:55:00
2:15 PM,35.6,23.0,60,30.32,10.0,NW,3.5,-,N/A,,Partly Cloudy,310,2012-10-11 19:15:00
2:35 PM,37.4,23.0,56,30.32,10.0,NNW,10.4,-,N/A,,Mostly Cloudy,340,2012-10-11 19:35:00
3:15 PM,37.4,21.2,52,30.31,10.0,NNW,8.1,-,N/A,,Mostly Cloudy,340,2012-10-11 20:15:00
3:35 PM,35.6,19.4,52,30.32,10.0,NW,6.9,-,N/A,,Overcast,320,2012-10-11 20:35:00
3:55 PM,37.4,17.6,45,30.32,10.0,NNW,9.2,-,N/A,,Mostly Cloudy,330,2012-10-11 20:55:00
4:15 PM,37.4,17.6,45,30.32,10.0,WNW,9.2,-,N/A,,Mostly Cloudy,300,2012-10-11 21:15:00
4:35 PM,39.2,19.4,45,30.31,10.0,NNW,6.9,-,N/A,,Mostly Cloudy,340,2012-10-11 21:35:00
4:55 PM,39.2,19.4,45,30.31,10.0,NNW,8.1,-,N/A,,Overcast,340,2012-10-11 21:55:00
5:15 PM,39.2,17.6,42,30.30,10.0,NNW,5.8,-,N/A,,Overcast,330,2012-10-11 22:15:00
5:35 PM,35.6,17.6,48,30.30,10.0,NW,3.5,-,N/A,,Mostly Cloudy,320,2012-10-11 22:35:00
6:35 PM,35.6,17.6,48,30.29,10.0,NNW,4.6,-,N/A,,Clear,330,2012-10-11 23:35:00
6:55 PM,32.0,17.6,55,30.30,10.0,NNW,4.6,-,N/A,,Clear,330,2012-10-11 23:55:00
7:15 PM,32.0,17.6,55,30.30,10.0,North,3.5,-,N/A,,Clear,350,2012-10-12 00:15:00
7:35 PM,30.2,17.6,60,30.30,10.0,Calm,Calm,-,N/A,,Partly Cloudy,0,2012-10-12 00:35:00
8:15 PM,26.6,17.6,69,30.30,10.0,Calm,Calm,-,N/A,,Scattered Clouds,0,2012-10-12 01:15:00
8:35 PM,26.6,17.6,69,30.29,10.0,Calm,Calm,-,N/A,,Partly Cloudy,0,2012-10-12 01:35:00
8:55 PM,24.8,17.6,74,30.29,10.0,Calm,Calm,-,N/A,,Clear,0,2012-10-12 01:55:00
9:15 PM,24.8,19.4,80,30.29,10.0,ESE,3.5,-,N/A,,Clear,120,2012-10-12 02:15:00
10:15 PM,23.0,19.4,86,30.28,10.0,ESE,3.5,-,N/A,,Clear,120,2012-10-12 03:15:00
10:35 PM,23.0,19.4,86,30.27,10.0,SE,5.8,-,N/A,,Partly Cloudy,140,2012-10-12 03:35:00
11:15 PM,24.8,19.4,80,30.26,10.0,SSE,3.5,-,N/A,,Clear,150,2012-10-12 04:15:00
11:35 PM,23.0,19.4,86,30.25,10.0,South,3.5,-,N/A,,Clear,180,2012-10-12 04:35:00
11:55 PM,23.0,19.4,86,30.25,10.0,SW,3.5,-,N/A,,Clear,230,2012-10-12 04:55:00